Regional Weather Roundup
Issued by NWS

Home | Current Version | Previous Version | Text Only | Print | Product List | Glossary On
Versions: 1 2 3 4 5 6 7 8 9 10 11 12 13 14 15 16 17 18 19 20 21 22 23 24 25 26 27 28 29 30 31 32 33 34 35 36 37 38 39 40 41 42 43 44 45 46 47 48 49 50
000
ASUS45 KBOU 061907
RWRCO

WEATHER ROUNDUP FOR COLORADO
NATIONAL WEATHER SERVICE DENVER/BOULDER CO
100 PM MDT FRI MAY 06 2016

NOTE: "FAIR" INDICATES FEW OR NO CLOUDS BELOW 12000 FEET WITH NO
SIGNIFICANT WEATHER AND/OR OBSTRUCTIONS TO VISIBILITY.

COZ001>005-013-030-031-062000-
...NORTHWEST COLORADO...

CITY           SKY/WX    TMP DP  RH WIND       PRES   REMARKS
CRAIG          FAIR      69  38  32 E9        29.96F
HAYDEN         FAIR      66  34  30 E12G17    29.98F
MEEKER         CLOUDY    70  37  29 SW12      29.93F
MOUNT WERNER   NOT AVBL
STEAMBOAT SPGS FAIR      67  32  26 CALM      29.99F
WALDEN         PTSUNNY   61  27  27 SE7       30.12F
$$

COZ006>008-011-062000-
...WEST CENTRAL VALLEYS...

CITY           SKY/WX    TMP DP  RH WIND       PRES   REMARKS
GRAND JUNCTION FAIR      78  39  24 E16       29.78F
MONTROSE       FAIR      76  31  19 E9G22     29.85F
EAGLE          MOSUNNY   72  30  21 NW7G20    29.86F
RIFLE          PTSUNNY   76  37  24 VRB6      29.86F
DELTA          NOT AVBL
NUCLA          NOT AVBL
$$

COZ017>023-064>068-062000-
...SOUTHWEST COLORADO...

CITY           SKY/WX    TMP DP  RH WIND       PRES   REMARKS
DURANGO        FAIR      72  25  17 S18G32    29.95F
CORTEZ         FAIR      75  25  15 S16G26    29.89F
PAGOSA SPRINGS PTSUNNY   68  22  17 SE13G23   30.03F
TELLURIDE      PTSUNNY   61  25  25 SE16G23   30.07F
WOLF CREEK PAS PTSUNNY   45  23  42 S17G33    30.30F
$$

COZ009-010-012-014-032>034-037-058>063-062000-
...CENTRAL COLORADO...

CITY           SKY/WX    TMP DP  RH WIND       PRES   REMARKS
ASPEN          PTSUNNY   63  33  32 S13       30.04F
BUENA VISTA    FAIR      65  29  26 SE3       30.11F
COPPER MTN     NOT AVBL
BERTHOUD PASS  FAIR      37  30  75 SE22      30.37F
COTTONWOOD PAS PTSUNNY   61  28  29 E8G24     30.22F
GUNNISON       FAIR      66  34  30 E20G26    30.02F
KREMMLING      FAIR      70  27  19 SE9G17    30.06F
LEADVILLE      PTSUNNY   57  26  30 S25G32    30.17F
MONARCH PASS   CLOUDY    43  28  56 SE18G33   30.41F
SALIDA         PTSUNNY   68  31  25 E7        30.15F
SUNLIGHT       PTSUNNY   54  28  37 SE7       30.22F
WILKERSON PASS CLOUDY    50  28  43 S7        30.33F
$$

COZ069>075-062000-
...SAN LUIS VALLEY/SANGRE DE CRISTO MOUNTAINS...

CITY           SKY/WX    TMP DP  RH WIND       PRES   REMARKS
ALAMOSA        FAIR      74  29  19 S21G30    30.04F
LA VETA PASS   FAIR      59  30  33 S10G16    30.25F
SAGUACHE       FAIR      70  32  24 S21G31    30.08F
$$

COZ035-036-038>040-062000-
...NORTHERN COLORADO FRONT RANGE...

CITY           SKY/WX    TMP DP  RH WIND       PRES   REMARKS
DENVER INTL AP PTSUNNY   76  38  25 E10G20    29.95F
DMNS CITY PARK   N/A     79  33  19 NW3       29.93F
AURORA         FAIR      78  35  21 S8        29.97F
FRONT RANGE AP PTSUNNY   73  32  21 SW3G23    29.97F
ERIE MUNI ARPT FAIR      74  43  32 NE8       29.93F
BOULDER MUN AP FAIR      72  43  35 NE6       29.94F
CENTENNIAL     PTSUNNY   76  31  19 W7        29.97F
BROOMFIELD     PTSUNNY   73  39  29 NW6       29.97F
FORT COLLINS   FAIR      75  48  38 S12G22    29.95S
LONGMONT       FAIR      75  42  30 CALM      29.95F
$$

COZ041-046-047-076>085-087-088-062000-
...PIKES PEAK/PALMER DIVIDE AND SOUTHERN FOOTHILLS...

CITY           SKY/WX    TMP DP  RH WIND       PRES   REMARKS
COLO. SPRINGS  FAIR      77  32  19 SE15G23   30.02F
A. F. ACADEMY  MOSUNNY   77  32  19 SE14G28   30.01F
SCHRIEVER AFB  NOT AVBL
ELLICOTT       FAIR     N/A N/A N/A S16       30.02F
FALCON         NOT AVBL
FORT CARSON    FAIR      78  38  23 SE16      29.99F
LIMON          FAIR      77  36  22 S16       29.98F
MONUMENT HILL  FAIR      70  32  24 S21       30.07F
TRINIDAD       FAIR      77  31  18 S31G39    30.01F
$$

COZ042>045-048>051-090-091-062000-
...NORTHEAST COLORADO...

CITY           SKY/WX    TMP DP  RH WIND       PRES   REMARKS
GREELEY ARPT   FAIR      77  48  36 SE8       29.93F
AKRON          FAIR      80  47  31 SE13      29.94F
BURLINGTON     FAIR      85  29  13 S26G33    29.96F
WRAY           NOT AVBL
STERLING       FAIR      81  48  32 SE9       29.90F
HOLYOKE        NOT AVBL
FORT MORGAN    FAIR      78  43  29 E7        29.94F
$$

COZ086-089-092>099-062000-
...SOUTHEAST COLORADO...

CITY           SKY/WX    TMP DP  RH WIND       PRES   REMARKS
PUEBLO         FAIR      82  42  24 SE9G21    29.92F
LA JUNTA       FAIR      85  30  13 S18       29.93F
LAMAR          FAIR      89  31  12 SW21G29   29.91F
SPRINGFIELD      N/A     79  33  19 SW21G35   30.00F
$$



USA.gov is the U.S. government's official web portal to all federal, state and local government web resources and services.